Wind_Speed
7 6 5 5 5 4 4 4 4 3 3 2 2 1 1 2 2 2 2 1 1 1 1 1 1 2 2 2 3 3 3 4 4 5 5 5 5 5 6 7 7 7 7
6 5 5 4 4 3 3 2 2 2 2 1 1 1 1 2 1 1 1 1 1 2 2 3 3 3 4 4 4 4 5 5 5 6 6 6 6 7 8 8 9 9 9
6 5 5 4 3 2 2 2 1 1 1 0 1 2 2 1 2 2 2 3 3 3 4 4 4 4 5 5 6 6 6 6 7 7 7 8 8 8 9 10 10 10 11
4 4 4 4 3 1 1 0 0 1 1 1 2 2 3 2 3 3 4 4 5 5 6 5 6 6 7 7 7 7 8 8 8 8 8 9 9 10 10 11 12 12 12
3 3 3 3 2 2 1 1 1 2 2 3 3 4 4 4 5 5 6 6 6 7 7 7 8 8 8 8 9 8 8 9 9 9 9 10 11 11 12 13 13 13 14
3 2 2 2 2 2 2 2 2 3 4 5 5 5 6 7 7 7 8 8 8 8 8 9 9 9 9 10 9 10 10 10 11 11 12 12 12 13 14 14 15 14 15
2 2 2 3 3 3 3 3 4 5 5 6 7 8 8 8 8 9 9 9 10 10 10 10 10 11 11 11 11 12 12 12 13 13 14 14 14 15 16 16 16 15 16
3 3 3 3 4 5 5 5 6 7 8 8 8 9 9 9 9 9 10 10 11 11 12 12 13 12 13 13 14 14 15 14 14 14 14 15 15 16 17 17 16 16 17
4 4 5 5 6 6 7 7 8 8 9 9 9 10 10 10 10 10 11 11 12 13 13 14 13 13 14 14 14 14 14 15 15 15 15 16 16 17 17 17 17 18 18
5 6 6 6 7 7 7 7 7 8 9 9 9 9 9 9 11 11 12 12 12 13 14 15 15 14 14 14 15 15 15 15 15 16 16 17 18 17 17 18 18 19 19
6 6 7 7 7 7 8 8 7 8 8 8 8 9 10 10 10 11 12 12 12 13 13 14 14 14 14 14 15 15 15 16 16 16 17 18 18 18 18 19 19 20 21
6 7 7 8 9 8 8 8 8 8 8 8 8 9 9 10 11 11 12 13 13 13 13 14 15 15 15 15 15 16 17 18 18 18 18 19 20 20 21 21 21 22 22
7 7 7 8 9 8 9 9 9 9 9 9 9 9 9 10 10 11 12 12 13 14 14 15 15 15 16 16 17 17 18 18 18 19 19 20 21 21 22 22 23 23 24
7 7 7 8 8 8 9 9 8 9 9 9 9 9 9 10 10 11 11 12 13 14 14 14 14 14 15 16 16 17 17 18 19 20 20 21 21 22 22 22 23 24 25
6 6 7 8 8 8 8 7 8 9 9 9 9 9 9 10 11 11 12 12 13 13 13 13 14 15 15 16 17 17 18 19 20 20 20 21 22 23 23 23 24 24 25
6 6 7 7 7 7 7 7 7 8 8 9 9 9 9 9 10 10 10 11 11 12 12 13 14 15 16 17 17 18 19 19 20 21 21 22 22 23 23 24 24 25 25
7 6 7 7 7 7 7 7 7 8 9 9 10 10 10 10 11 11 12 12 13 13 13 13 14 16 16 17 18 19 20 20 21 21 21 22 22 23 24 25 26 27 27
7 7 8 8 7 7 8 8 9 9 10 10 11 11 11 11 12 13 13 14 14 14 15 16 16 17 18 19 20 20 20 21 21 22 22 22 23 24 25 26 27 28 29
8 8 9 8 8 8 9 9 9 10 10 11 11 11 12 12 13 13 14 14 15 15 16 17 18 18 19 19 20 21 21 22 22 22 23 24 24 25 26 28 28 29 30
9 10 10 10 10 10 10 10 11 11 11 11 12 12 12 13 13 13 14 15 15 16 17 18 19 19 19 20 21 22 23 24 24 25 26 26 25 26 27 29 29 29 30
11 11 11 11 11 11 11 12 12 12 12 12 13 13 13 13 14 14 15 16 16 17 18 19 19 20 21 22 22 23 23 24 25 26 27 27 27 28 28 29 29 30 31
12 12 12 12 12 12 13 13 13 13 13 14 14 14 13 14 15 16 16 17 17 18 19 20 20 21 22 23 23 24 25 25 26 27 28 29 29 29 30 30 31 32 32
13 13 13 13 13 14 14 14 14 14 14 14 14 14 14 15 16 17 18 18 19 20 21 21 22 22 23 24 24 26 26 27 28 28 29 29 30 31 32 33 33 34 34
14 14 14 14 14 14 14 14 14 14 14 14 15 15 16 16 17 18 19 20 21 21 22 22 23 23 24 24 25 26 27 28 28 29 30 31 31 32 32 33 33 34 34
14 14 15 15 15 14 14 14 14 14 15 15 16 17 17 18 19 20 20 21 21 21 22 23 24 24 25 26 27 27 28 29 30 30 31 31 32 32 32 33 33 34 34
15 15 15 15 15 14 14 14 15 15 16 16 17 18 18 19 20 20 21 22 22 23 24 24 25 26 27 27 28 29 29 29 30 31 31 31 32 32 33 33 34 34 34
Wind_Direction
83 84 82 81 88 87 88 92 94 99 104 101 109 111 110 127 124 104 90 96 126 208 238 250 260 266 279 284 286 283 278 273 271 271 272 276 276 277 279 276 274 273 271
84 80 77 72 79 81 93 97 96 87 80 109 139 155 164 162 158 169 226 264 259 256 263 266 263 268 273 280 281 277 274 272 270 266 268 272 275 276 279 278 275 273 271
79 78 74 72 77 80 85 88 93 82 48 275 234 209 191 206 223 255 266 267 265 267 272 271 264 266 272 279 279 276 276 274 269 269 270 272 273 277 279 278 276 274 271
70 77 74 67 63 67 101 98 208 264 310 289 266 253 247 257 265 267 268 268 269 269 272 274 268 267 272 276 279 279 277 275 274 273 275 274 275 278 278 278 277 275 272
59 64 58 46 43 38 28 352 285 282 285 280 278 269 260 268 270 268 269 269 272 271 268 271 274 270 272 276 278 280 280 276 276 275 276 275 277 278 280 280 278 274 272
44 52 42 27 21 6 345 332 296 284 281 274 277 276 270 272 272 272 272 275 277 278 276 276 276 274 274 276 275 279 281 279 279 275 274 275 278 279 282 282 280 277 275
3 7 352 350 341 327 319 307 293 284 285 281 278 277 275 272 272 273 274 274 273 273 275 275 273 272 273 276 277 276 277 277 278 277 276 277 279 280 281 283 280 278 277
333 330 324 321 317 310 302 297 292 287 284 281 280 279 278 275 274 275 277 275 274 273 272 275 276 274 275 276 276 274 273 275 279 279 278 278 280 281 282 280 279 279 279
303 305 306 304 305 303 304 297 289 285 283 278 275 276 275 275 278 277 277 275 274 274 273 274 276 278 276 277 279 275 275 276 279 279 280 280 280 279 280 280 280 278 280
292 293 294 298 301 303 307 307 299 291 285 283 278 276 275 277 278 279 279 276 274 273 275 275 278 278 279 278 277 276 275 275 276 278 279 280 279 280 282 281 280 279 280
293 291 293 297 299 300 303 304 304 300 294 292 290 288 281 277 277 278 279 278 276 275 276 277 278 279 281 281 280 279 277 277 278 278 279 279 281 282 282 281 280 281 281
299 292 291 293 295 297 297 297 300 302 297 298 297 296 289 282 281 280 279 277 275 276 279 279 278 278 279 280 282 281 280 280 280 280 280 281 282 283 283 283 282 282 282
305 296 295 298 298 299 299 298 298 298 301 301 299 297 297 290 287 286 283 282 280 281 282 282 279 277 279 281 285 284 282 281 281 282 283 282 283 284 284 285 285 285 284
316 306 303 302 300 299 299 299 303 305 304 301 297 295 296 298 297 297 293 290 287 283 283 282 281 281 283 283 285 286 284 281 281 281 282 283 284 284 285 284 284 285 285
329 318 309 303 300 300 299 296 298 304 302 302 299 297 300 303 302 302 301 299 295 290 286 283 281 282 284 285 285 286 286 284 284 282 284 285 285 286 286 284 284 285 285
333 328 323 317 315 309 304 302 302 306 304 305 302 304 304 305 309 308 306 304 304 299 292 288 286 282 283 285 286 285 286 286 285 284 284 285 285 286 286 286 286 286 286
334 327 328 329 323 316 310 308 311 311 309 308 304 302 302 300 301 303 302 299 298 299 301 296 291 290 288 288 288 286 285 286 288 287 286 285 285 286 286 287 288 288 288
334 333 331 329 327 322 316 310 307 306 309 309 308 305 303 301 302 304 301 298 298 298 300 299 297 294 291 291 290 290 290 289 288 288 288 287 287 288 287 287 287 289 290
332 327 324 321 317 314 312 312 312 309 310 311 309 308 304 301 302 304 303 301 301 300 300 300 298 299 296 293 293 293 291 289 289 289 289 289 289 289 288 288 289 290 290
329 326 320 315 310 309 309 309 308 308 308 309 310 309 308 308 307 306 307 305 304 303 302 303 300 300 300 297 297 294 292 290 290 290 290 290 290 291 291 291 291 292 292
327 325 321 315 309 305 305 306 306 305 306 306 308 310 309 309 309 310 310 312 310 307 306 306 304 304 302 299 299 298 296 294 293 292 293 293 292 292 293 293 293 293 293
325 323 318 313 309 304 303 303 302 301 304 304 306 308 308 308 310 311 312 312 311 310 309 308 308 306 305 302 299 298 296 295 296 296 296 295 294 294 294 294 294 294 294
321 321 319 315 312 306 304 304 300 302 305 306 306 307 309 311 312 312 311 310 309 310 309 309 309 309 306 303 300 299 298 295 294 295 295 295 294 294 295 295 294 294 294
321 320 321 318 316 313 308 306 306 305 307 308 307 307 309 311 313 313 313 313 311 311 309 309 309 309 307 305 305 303 302 300 298 296 296 295 295 295 295 295 296 296 296
319 318 319 319 317 315 313 311 309 307 307 307 307 307 309 312 314 314 314 313 313 313 313 312 312 311 309 308 307 306 304 303 301 300 299 300 300 299 298 296 296 297 297
319 317 318 317 315 314 313 312 311 309 308 308 308 307 309 312 314 314 315 316 316 316 314 313 312 311 310 310 309 308 307 305 303 303 302 301 301 300 299 298 298 297 297
Height
5905 5905 5904 5904 5904 5904 5904 5904 5904 5904 5904 5904 5903 5903 5903 5903 5903 5903 5902 5902 5902 5901 5901 5901 5900 5900 5900 5899 5899 5899 5898 5898 5898 5897 5897 5896 5896 5895 5895 5895 5894 5894 5893
5906 5905 5905 5905 5905 5905 5905 5905 5904 5904 5904 5904 5904 5904 5904 5903 5903 5903 5903 5902 5902 5901 5901 5900 5900 5900 5899 5899 5898 5898 5897 5897 5896 5896 5895 5895 5895 5894 5893 5893 5893 5892 5892
5907 5906 5906 5906 5906 5905 5905 5905 5905 5905 5904 5904 5904 5904 5903 5903 5903 5903 5902 5902 5901 5901 5900 5900 5899 5899 5899 5898 5898 5897 5896 5896 5895 5894 5894 5893 5893 5892 5892 5891 5891 5890 5890
5907 5907 5907 5906 5906 5906 5906 5905 5905 5905 5905 5904 5904 5904 5903 5903 5903 5902 5902 5901 5901 5900 5900 5899 5899 5898 5897 5897 5896 5896 5895 5894 5894 5893 5892 5892 5891 5890 5890 5889 5888 5887 5887
5908 5907 5907 5907 5906 5906 5905 5905 5905 5904 5904 5904 5904 5903 5903 5902 5902 5901 5900 5900 5900 5899 5898 5898 5897 5896 5895 5895 5894 5894 5893 5892 5892 5891 5890 5889 5889 5888 5887 5886 5885 5885 5884
5908 5907 5907 5907 5906 5906 5905 5905 5904 5904 5904 5903 5903 5902 5902 5901 5901 5900 5899 5899 5898 5897 5897 5896 5895 5894 5894 5893 5892 5892 5891 5890 5889 5888 5888 5887 5886 5885 5885 5883 5883 5882 5881
5908 5907 5907 5906 5906 5905 5905 5904 5904 5903 5903 5902 5902 5901 5900 5899 5899 5898 5898 5897 5896 5895 5895 5894 5893 5892 5891 5890 5890 5889 5888 5887 5886 5886 5885 5884 5883 5882 5881 5880 5879 5879 5878
5908 5907 5906 5906 5906 5905 5904 5903 5902 5902 5901 5900 5900 5899 5898 5898 5897 5896 5895 5895 5894 5893 5892 5891 5890 5889 5888 5887 5886 5886 5885 5884 5883 5882 5881 5880 5880 5879 5878 5877 5876 5875 5874
5907 5906 5906 5905 5905 5904 5903 5902 5901 5900 5899 5898 5898 5897 5896 5896 5894 5894 5893 5892 5891 5890 5889 5888 5886 5886 5884 5883 5882 5882 5881 5880 5879 5879 5878 5877 5876 5875 5874 5873 5872 5871 5870
5906 5905 5904 5904 5903 5902 5901 5900 5898 5897 5896 5895 5895 5894 5894 5893 5892 5891 5890 5889 5888 5887 5886 5884 5883 5882 5881 5879 5879 5878 5877 5876 5876 5875 5874 5873 5872 5870 5869 5868 5867 5866 5865
5904 5903 5903 5902 5901 5900 5899 5898 5897 5896 5894 5893 5892 5891 5890 5890 5889 5888 5887 5886 5885 5884 5882 5881 5880 5879 5878 5877 5876 5874 5873 5873 5872 5871 5870 5869 5867 5866 5865 5864 5863 5861 5860
5902 5902 5901 5900 5899 5898 5897 5896 5895 5894 5892 5891 5890 5889 5888 5887 5886 5885 5884 5882 5881 5881 5879 5878 5877 5875 5874 5873 5872 5871 5870 5869 5867 5866 5865 5864 5863 5861 5860 5858 5857 5856 5854
5901 5900 5899 5898 5897 5896 5895 5894 5892 5891 5890 5889 5888 5887 5885 5884 5883 5882 5880 5879 5877 5876 5875 5874 5872 5871 5870 5869 5868 5867 5865 5864 5863 5861 5860 5859 5857 5856 5855 5853 5851 5850 5848
5899 5898 5897 5896 5895 5893 5892 5891 5890 5889 5888 5886 5885 5884 5883 5881 5880 5878 5877 5875 5873 5872 5871 5870 5868 5867 5867 5866 5864 5863 5861 5859 5858 5856 5855 5854 5852 5850 5849 5847 5845 5844 5842
5897 5896 5895 5893 5892 5891 5890 5889 5888 5887 5885 5884 5883 5882 5881 5879 5877 5875 5873 5872 5870 5869 5868 5866 5865 5864 5862 5861 5860 5858 5857 5855 5853 5851 5850 5848 5847 5845 5843 5841 5839 5837 5835
5896 5894 5893 5892 5890 5889 5887 5886 5885 5884 5883 5881 5880 5879 5878 5876 5874 5872 5870 5868 5867 5865 5864 5863 5861 5860 5858 5857 5855 5853 5851 5850 5848 5846 5844 5842 5840 5839 5836 5835 5833 5831 5828
5894 5893 5892 5890 5888 5887 5886 5884 5883 5882 5880 5879 5878 5876 5875 5873 5871 5869 5867 5865 5864 5862 5861 5859 5857 5856 5854 5852 5850 5848 5846 5844 5842 5840 5838 5836 5834 5832 5830 5828 5826 5824 5821
5893 5891 5890 5888 5887 5885 5884 5883 5881 5880 5878 5877 5875 5873 5872 5870 5868 5867 5864 5862 5861 5859 5857 5855 5853 5851 5849 5847 5845 5843 5840 5838 5837 5835 5832 5830 5828 5825 5823 5821 5819 5816 5814
5891 5889 5888 5886 5885 5884 5882 5880 5879 5877 5876 5874 5872 5870 5869 5867 5865 5863 5861 5859 5857 5855 5853 5851 5848 5846 5844 5841 5839 5837 5835 5832 5830 5828 5826 5823 5821 5818 5816 5814 5811 5808 5805
5889 5887 5886 5884 5883 5881 5880 5878 5876 5874 5873 5871 5869 5867 5865 5864 5862 5860 5858 5856 5853 5851 5849 5846 5844 5841 5839 5836 5834 5831 5829 5826 5824 5821 5819 5816 5814 5811 5809 5806 5803 5800 5797
5886 5885 5883 5881 5880 5878 5877 5875 5873 5871 5869 5868 5866 5864 5862 5860 5859 5856 5854 5852 5849 5847 5844 5842 5839 5836 5834 5831 5829 5826 5823 5820 5817 5814 5812 5809 5806 5803 5800 5797 5794 5791 5788
5884 5882 5880 5878 5876 5875 5873 5871 5869 5867 5866 5864 5863 5861 5859 5857 5855 5853 5850 5848 5845 5843 5840 5837 5834 5831 5828 5826 5823 5819 5816 5813 5810 5807 5804 5800 5798 5794 5791 5788 5785 5782 5779
5881 5879 5877 5875 5873 5871 5869 5867 5865 5864 5862 5861 5859 5857 5855 5853 5851 5849 5846 5844 5841 5838 5835 5832 5829 5826 5823 5820 5816 5813 5809 5806 5803 5800 5796 5793 5789 5786 5782 5779 5776 5772 5769
5879 5876 5874 5872 5870 5867 5865 5863 5862 5860 5858 5857 5855 5853 5851 5849 5846 5844 5842 5839 5836 5833 5830 5827 5824 5820 5817 5813 5810 5806 5802 5799 5796 5792 5788 5785 5781 5777 5774 5770 5766 5762 5759
5876 5873 5871 5869 5867 5864 5862 5860 5858 5857 5855 5853 5851 5849 5847 5845 5842 5839 5836 5834 5831 5827 5824 5821 5817 5814 5810 5806 5803 5799 5795 5791 5787 5784 5780 5776 5772 5768 5765 5761 5757 5753 5749
5872 5870 5868 5866 5863 5861 5859 5857 5855 5853 5851 5850 5847 5845 5843 5840 5837 5834 5831 5828 5825 5822 5818 5815 5811 5807 5803 5799 5795 5791 5787 5783 5779 5776 5772 5768 5764 5760 5756 5752 5748 5744 5740